WB3IGR Weather Reports


time (UTC)temp
C
wind
direction
speed
KPH
gust
KPH
rain 1hr
cm
rain 24hr
cm
rain mn
cm
humidity
%
barometer
mb
20260505011526 18 190 9.7 17.7 0.00 0.00 0.00 52 1010.8
20260505011023 18 197 8.0 22.5 0.00 0.00 0.00 52 1010.6
20260505010518 18 139 6.4 14.5 0.00 0.00 0.00 52 1010.8
20260505010015 18 193 8.0 22.5 0.00 0.00 0.00 51 1010.6
20260505005512 18 184 9.7 14.5 0.00 0.00 0.00 51 1010.7
20260505005009 18 217 6.4 16.1 0.00 0.00 0.00 51 1010.9
20260505004506 18 175 9.7 17.7 0.00 0.00 0.00 51 1010.6
20260505004003 18 285 3.2 20.9 0.00 0.00 0.00 51 1010.4
20260505003500 18 250 9.7 16.1 0.00 0.00 0.00 50 1010.7
20260505002956 18 241 8.0 11.3 0.00 0.00 0.00 50 1010.6
20260505002452 18 236 4.8 20.9 0.00 0.00 0.00 50 1010.6
20260505001951 18 321 11.3 25.7 0.00 0.00 0.00 50 1010.4
20260505001448 18 185 4.8 16.1 0.00 0.00 0.00 51 1010.5
20260505000945 18 180 9.7 12.9 0.00 0.00 0.00 51 1010.6
20260505000443 19 196 8.0 16.1 0.00 0.00 0.00 50 1010.6
20260504235940 19 238 9.7 14.5 0.00 0.00 0.00 50 1010.6
20260504235437 19 17 4.8 9.7 0.00 0.00 0.00 50 1010.7
20260504234933 19 224 8.0 17.7 0.00 0.00 0.00 50 1010.6
20260504234431 19 301 9.7 14.5 0.00 0.00 0.00 49 1010.5
20260504233927 20 190 12.9 20.9 0.00 0.00 0.00 49 1010.3
20260504233423 20 215 9.7 24.1 0.00 0.00 0.00 47 1010.2
20260504232920 20 213 17.7 27.4 0.00 0.00 0.00 47 1010.3
20260504232417 20 133 11.3 20.9 0.00 0.00 0.00 47 1010.4
20260504231914 20 239 6.4 17.7 0.00 0.00 0.00 48 1010.4
20260504231410 20 136 6.4 20.9 0.00 0.00 0.00 48 1010.5
20260504230907 20 237 9.7 22.5 0.00 0.00 0.00 47 1010.2
20260504230404 21 204 12.9 17.7 0.00 0.00 0.00 46 1010.1
20260504225903 21 235 6.4 12.9 0.00 0.00 0.00 47 1010.1
20260504225359 21 261 9.7 17.7 0.00 0.00 0.00 46 1010.2
20260504224857 21 187 6.4 16.1 0.00 0.00 0.00 46 1010.2
20260504224353 22 234 14.5 17.7 0.00 0.00 0.00 43 1010.4
20260504223850 22 279 8.0 20.9 0.00 0.00 0.00 43 1010.3
20260504223345 22 266 12.9 24.1 0.00 0.00 0.00 42 1010.2
20260504222842 22 290 8.0 12.9 0.00 0.00 0.00 42 1010.3
20260504222339 22 271 6.4 12.9 0.00 0.00 0.00 42 1010.1
20260504221837 22 281 12.9 17.7 0.00 0.00 0.00 41 1010.2
20260504221334 22 324 6.4 16.1 0.00 0.00 0.00 42 1010.3
20260504220831 22 262 3.2 11.3 0.00 0.00 0.00 44 1010.3
20260504220327 22 197 11.3 24.1 0.00 0.00 0.00 41 1010.2
20260504215825 22 329 6.4 9.7 0.00 0.00 0.00 42 1010.0
20260504215321 22 267 8.0 12.9 0.00 0.00 0.00 41 1010.2
20260504214817 22 225 4.8 17.7 0.00 0.00 0.00 41 1010.3
20260504214314 22 267 14.5 20.9 0.00 0.00 0.00 41 1010.5
20260504213811 23 255 8.0 14.5 0.00 0.00 0.00 40 1010.4
20260504213307 22 327 6.4 20.9 0.00 0.00 0.00 41 1010.3
20260504212804 22 301 6.4 11.3 0.00 0.00 0.00 42 1010.4
20260504212300 22 236 9.7 20.9 0.00 0.00 0.00 41 1010.4
20260504211758 22 326 4.8 12.9 0.00 0.00 0.00 41 1010.5
20260504211248 23 279 8.0 14.5 0.00 0.00 0.00 41 1010.5
20260504210746 22 324 14.5 17.7 0.00 0.00 0.00 41 1010.3
20260504210243 22 228 4.8 11.3 0.00 0.00 0.00 43 1010.6
20260504205740 23 303 11.3 16.1 0.00 0.00 0.00 41 1010.6
20260504205238 23 314 4.8 12.9 0.00 0.00 0.00 43 1010.6
20260504204736 23 232 6.4 12.9 0.00 0.00 0.00 42 1010.6
20260504204234 23 150 4.8 17.7 0.00 0.00 0.00 43 1010.7
20260504203733 23 297 3.2 12.9 0.00 0.00 0.00 41 1010.5
20260504203230 23 294 9.7 12.9 0.00 0.00 0.00 43 1010.5
20260504202730 23 296 8.0 14.5 0.00 0.00 0.00 42 1010.6
20260504202227 22 320 6.4 14.5 0.00 0.00 0.00 42 1010.8
20260504201724 23 257 6.4 14.5 0.00 0.00 0.00 41 1010.6
20260504201221 22 334 8.0 14.5 0.00 0.00 0.00 40 1010.9
20260504200719 22 317 9.7 12.9 0.00 0.00 0.00 41 1010.9
20260504200215 22 294 9.7 17.7 0.00 0.00 0.00 42 1011.2
20260504195711 22 268 8.0 16.1 0.00 0.00 0.00 44 1011.2
20260504195207 22 197 12.9 20.9 0.00 0.00 0.00 43 1011.3
20260504194704 21 252 8.0 16.1 0.00 0.00 0.00 43 1011.4
20260504194201 22 265 8.0 27.4 0.00 0.00 0.00 43 1011.3
20260504193657 22 243 17.7 22.5 0.00 0.00 0.00 43 1011.2
20260504193155 22 264 9.7 14.5 0.00 0.00 0.00 42 1011.4
20260504192653 22 266 9.7 20.9 0.00 0.00 0.00 43 1011.4
20260504192150 22 259 9.7 24.1 0.00 0.00 0.00 43 1011.6
20260504191649 22 299 6.4 22.5 0.00 0.00 0.00 44 1011.5
20260504191144 22 348 6.4 24.1 0.00 0.00 0.00 43 1011.8
20260504190641 22 330 8.0 16.1 0.00 0.00 0.00 42 1011.7
20260504190138 21 248 9.7 25.7 0.00 0.00 0.00 44 1011.7
20260504185634 22 245 11.3 20.9 0.00 0.00 0.00 44 1012.0
20260504185131 22 228 8.0 14.5 0.00 0.00 0.00 41 1012.0
20260504184626 22 294 8.0 14.5 0.00 0.00 0.00 41 1012.1
20260504184122 21 240 11.3 14.5 0.00 0.00 0.00 44 1011.9
20260504183619 21 208 8.0 22.5 0.00 0.00 0.00 45 1011.9
20260504183117 21 288 6.4 14.5 0.00 0.00 0.00 42 1012.0
20260504182614 21 273 9.7 24.1 0.00 0.00 0.00 44 1012.2
20260504182112 21 237 3.2 14.5 0.00 0.00 0.00 44 1012.3
20260504181609 22 314 14.5 17.7 0.00 0.00 0.00 44 1012.2
20260504181106 21 297 9.7 20.9 0.00 0.00 0.00 43 1012.4
20260504180605 21 290 9.7 20.9 0.00 0.00 0.00 45 1012.3
20260504180104 21 329 6.4 12.9 0.00 0.00 0.00 42 1012.5
20260504175601 21 200 4.8 17.7 0.00 0.00 0.00 45 1012.2
20260504175057 21 330 6.4 14.5 0.00 0.00 0.00 43 1012.5
20260504174555 21 281 9.7 22.5 0.00 0.00 0.00 46 1012.5
20260504174051 21 259 9.7 16.1 0.00 0.00 0.00 44 1012.6
20260504173548 21 239 6.4 14.5 0.00 0.00 0.00 43 1012.7
20260504173046 20 5 6.4 11.3 0.00 0.00 0.00 45 1012.8
20260504172542 21 264 17.7 20.9 0.00 0.00 0.00 45 1013.0
20260504172039 21 320 14.5 16.1 0.00 0.00 0.00 43 1012.8
20260504171536 20 258 11.3 14.5 0.00 0.00 0.00 43 1013.1
20260504171033 20 292 11.3 14.5 0.00 0.00 0.00 43 1013.3
20260504170528 20 295 14.5 17.7 0.00 0.00 0.00 43 1013.4
20260504150912 17 290 9.7 16.1 0.00 0.00 0.00 48 1014.6
20260504150409 17 217 6.4 17.7 0.00 0.00 0.00 50 1014.8
20260504140835 16 273 4.8 9.7 0.00 0.00 0.00 48 1015.2
20260504140331 15 229 4.8 6.4 0.00 0.00 0.00 51 1015.1
20260504130800 13 301 9.7 11.3 0.00 0.00 0.00 52 1015.3
20260504130256 13 237 4.8 9.7 0.00 0.00 0.00 54 1015.2
20260504120220 12 99 0.0 3.2 0.00 0.00 0.00 59 1015.6
20260504110647 7 131 0.0 1.6 0.00 0.00 0.00 71 1015.7
20260504110143 7 154 0.0 0.0 0.00 0.00 0.00 72 1015.5
20260504100609 5 214 3.2 3.2 0.00 0.00 0.00 78 1015.6
20260504100108 5 314 0.0 3.2 0.00 0.00 0.00 77 1015.5
20260504082003 6 313 0.0 1.6 0.00 0.00 0.00 69 1015.9
20260504081500 6 322 0.0 0.0 0.00 0.00 0.00 68 1015.8
20260504080950 7 322 1.6 1.6 0.00 0.00 0.00 66 1015.6
20260504080447 7 342 3.2 3.2 0.00 0.00 0.00 65 1015.9
20260504050253 11 238 4.8 9.7 0.00 0.00 0.00 50 1015.6
20260504045750 11 233 6.4 11.3 0.00 0.00 0.00 49 1015.7
20260504045245 11 273 8.0 11.3 0.00 0.00 0.00 50 1015.8
20260504044743 11 257 6.4 11.3 0.00 0.00 0.00 50 1015.7
20260504044241 11 265 8.0 11.3 0.00 0.00 0.00 50 1015.6
20260504043737 11 231 3.2 11.3 0.00 0.00 0.00 50 1015.7
20260504043234 11 256 4.8 9.7 0.00 0.00 0.00 50 1015.7
20260504042732 11 282 6.4 9.7 0.00 0.00 0.00 50 1015.5
20260504042228 11 243 6.4 12.9 0.00 0.00 0.00 50 1015.9
20260504041724 11 251 6.4 12.9 0.00 0.00 0.00 50 1015.7
20260504041220 11 255 8.0 11.3 0.00 0.00 0.00 49 1015.6
20260504040717 11 244 6.4 11.3 0.00 0.00 0.00 50 1015.5
20260504040214 11 255 8.0 11.3 0.00 0.00 0.00 49 1015.5
20260504035710 11 254 6.4 12.9 0.00 0.00 0.00 48 1015.4
20260504035208 11 266 4.8 12.9 0.00 0.00 0.00 49 1015.6
20260504034705 11 226 9.7 11.3 0.00 0.00 0.00 48 1015.4
20260504034202 11 248 3.2 11.3 0.00 0.00 0.00 49 1015.4
20260504033700 11 229 9.7 12.9 0.00 0.00 0.00 48 1015.3
20260504033157 11 261 6.4 12.9 0.00 0.00 0.00 49 1015.4
20260504032653 11 244 11.3 12.9 0.00 0.00 0.00 48 1015.3
20260504032151 11 208 6.4 12.9 0.00 0.00 0.00 49 1015.2
20260504031648 11 252 8.0 11.3 0.00 0.00 0.00 49 1015.1
20260504031144 11 230 4.8 9.7 0.00 0.00 0.00 50 1015.2
20260504030641 11 242 6.4 9.7 0.00 0.00 0.00 49 1015.2
20260504030138 11 259 4.8 9.7 0.00 0.00 0.00 49 1015.2
20260504025634 11 247 9.7 12.9 0.00 0.00 0.00 49 1015.2
20260504025131 11 221 3.2 9.7 0.00 0.00 0.00 49 1015.2
20260504024628 11 238 4.8 11.3 0.00 0.00 0.00 48 1015.2
20260504024125 11 252 9.7 11.3 0.00 0.00 0.00 48 1015.2
20260504023621 11 245 6.4 9.7 0.00 0.00 0.00 49 1015.2
20260504023118 11 259 6.4 12.9 0.00 0.00 0.00 49 1015.1
20260504022614 11 200 3.2 9.7 0.00 0.00 0.00 49 1015.1
20260504022110 11 253 8.0 11.3 0.00 0.00 0.00 49 1015.3
20260504021608 11 231 4.8 9.7 0.00 0.00 0.00 49 1015.3
20260504021105 11 234 4.8 6.4 0.00 0.00 0.00 50 1015.4
20260504020602 11 245 4.8 6.4 0.00 0.00 0.00 49 1015.3
20260504020058 11 274 6.4 9.7 0.00 0.00 0.00 49 1015.3
20260504015554 11 234 3.2 6.4 0.00 0.00 0.00 49 1015.2
20260504015050 11 235 3.2 6.4 0.00 0.00 0.00 50 1015.3
20260504014547 11 250 6.4 9.7 0.00 0.00 0.00 49 1015.2
20260504014044 11 233 4.8 6.4 0.00 0.00 0.00 49 1015.1
20260504013541 11 235 3.2 4.8 0.00 0.00 0.00 51 1015.0
20260504013038 11 227 4.8 6.4 0.00 0.00 0.00 50 1015.3
20260504012536 11 211 3.2 4.8 0.00 0.00 0.00 51 1015.1
20260504012033 11 227 4.8 6.4 0.00 0.00 0.00 50 1015.0